Location: Palomar Mountain Lodge
(33.3110°N, 116.8495°W)
Time: 01:39:58
(UTC-07:00)

H-2A R/B - Pass Details

Date: 19 May 2017
Orbit: 578 x 658 km, 98.4° (Epoch: 22 June)

Event Time Altitude Azimuth Distance (km) Brightness Sun altitude
Exits shadow 23:09:02 34° 330° (NNW) 1,082 3.7 -32.1°
Drops below altitude 10° 23:11:39 10° 341° (NNW) 2,067 5.6 -32.3°
Sets 23:13:54 0° 344° (NNW) 2,986 6.6 -32.5°
